Location: Sobotiste
(48.7170°N, 17.4000°E)
Time: 21:57:31
(UTC+02:00)

Amateur Radio Satellites - All Passes

Search period start: 19 October 2017 21:27
Search period end: 20 October 2017 21:27
Location: Sobotiste, 48.7170°N, 17.4000°E

Satellite Date Start Highest point End Downlink Frequencies (MHz)
Time Altitude Azimuth
YUBILEINY 19 Oct 21:35:38 21:44:15 63° 268° (W) 21:52:54 435.215
BEESAT 3 19 Oct 21:37:19 21:41:05 40° 239° (WSW) 21:44:45 437.485
DELFI C3 19 Oct 21:42:10 21:46:03 69° 259° (W) 21:49:58 145.870
UNISAT 6 19 Oct 21:43:47 21:47:03 19° 90° (E) 21:50:15 437.425
AO-73 19 Oct 21:53:03 21:55:07 13° 273° (W) 21:57:11 145.935
TIGRISAT 19 Oct 21:58:34 22:02:19 24° 92° (E) 22:05:58 435.000
AO-85 19 Oct 22:01:46 22:06:15 84° 51° (NE) 22:11:04 145.980
LO-87 19 Oct 22:03:07 22:05:32 17° 63° (ENE) 22:07:57 145.935 - 145.965
STRAND 1 19 Oct 22:33:09 22:35:30 13° 308° (NW) 22:37:50 437.568
FO-29 19 Oct 22:33:18 22:39:53 64° 290° (WNW) 22:47:12 435.910
O/OREOS (USA 219) 19 Oct 22:36:59 22:40:57 28° 308° (NW) 22:44:59 437.305
EO-88 19 Oct 22:42:58 22:46:02 25° 265° (W) 22:49:07 145.990 - 145.960
Max Valier Satellite 19 Oct 22:51:10 22:53:38 17° 269° (W) 22:56:06 145.860
BEESAT 2 19 Oct 22:55:52 22:59:04 23° 245° (WSW) 23:02:14 435.950
VELOX 1 19 Oct 23:02:33 23:04:41 13° 57° (ENE) 23:06:50 145.980
ESTCUBE 1 19 Oct 23:05:48 23:10:13 61° 72° (ENE) 23:14:40 437.505/2401.250
RS-15 19 Oct 23:06:14 23:13:11 17° 94° (E) 23:20:07 29.354- 29.394
PRISM 19 Oct 23:07:47 23:11:50 51° 101° (E) 23:15:50 437.425
AIST 2D 19 Oct 23:08:19 23:10:04 13° 90° (E) 23:11:47 435.315
UNISAT 6 19 Oct 23:19:33 23:24:08 57° 289° (WNW) 23:28:36 437.425
TIGRISAT 19 Oct 23:34:45 23:39:12 45° 291° (WNW) 23:43:32 435.000
LO-87 19 Oct 23:35:12 23:38:38 42° 261° (W) 23:42:07 145.935 - 145.965
YUBILEINY 19 Oct 23:35:13 23:39:10 14° 290° (WNW) 23:43:09 435.215
AO-85 19 Oct 23:43:24 23:46:11 16° 248° (WSW) 23:49:03 145.980
SPROUT 19 Oct 23:58:47 00:02:58 55° 71° (ENE) 00:07:12 437.525
DX 1 20 Oct 00:11:06 00:13:56 17° 59° (ENE) 00:16:47 434.975-435.025
FO-29 20 Oct 00:20:07 00:23:55 16° 309° (NW) 00:27:54 435.910
EO-79 20 Oct 00:28:15 00:32:18 40° 98° (E) 00:36:18 145.935-145.965
50 SAT 20 Oct 00:32:21 00:34:59 23° 66° (ENE) 00:37:37 437.505
POLYITAN 1 20 Oct 00:32:40 00:36:47 44° 99° (E) 00:40:50 437.675
VELOX 1 20 Oct 00:36:06 00:40:29 87° 260° (W) 00:44:55 145.980
UKube-1 20 Oct 00:36:48 00:39:54 20° 61° (ENE) 00:43:02 .
AIST 2D 20 Oct 00:40:09 00:43:31 47° 288° (WNW) 00:46:51 435.315
PRISM 20 Oct 00:43:51 00:46:45 19° 298° (WNW) 00:49:39 437.425
ESTCUBE 1 20 Oct 00:44:31 00:47:25 17° 270° (W) 00:50:21 437.505/2401.250
QB50P2 20 Oct 00:52:47 00:57:05 79° 102° (ESE) 01:01:20 145.880/145.840
Oscar 19 20 Oct 00:55:47 00:56:49 11° 85° (E) 00:57:50 437.125/150
NANOSAT C BR1 20 Oct 00:57:01 01:01:16 71° 102° (ESE) 01:05:30 145.865
DUCHIFAT 1 20 Oct 01:08:17 01:12:33 81° 102° (ESE) 01:16:47 145.980
RS-15 20 Oct 01:11:03 01:23:05 64° 118° (ESE) 01:35:05 29.354- 29.394
Gurwin Techsat 1B 20 Oct 01:18:40 01:21:05 13° 86° (E) 01:23:29 435.225
BUGSAT 1 20 Oct 01:19:55 01:23:43 30° 96° (E) 01:27:26 437.445
ITUPSAT 1 20 Oct 01:23:40 01:25:03 11° 52° (NE) 01:26:26 437.325
SPROUT 20 Oct 01:36:22 01:39:12 17° 270° (W) 01:42:04 437.525
BEESAT 20 Oct 01:38:17 01:40:58 15° 56° (NE) 01:43:38 436.000
DX 1 20 Oct 01:45:23 01:49:40 63° 258° (WSW) 01:54:00 434.975-435.025
EO-79 20 Oct 02:04:23 02:07:51 24° 296° (WNW) 02:11:17 145.935-145.965
50 SAT 20 Oct 02:04:30 02:07:13 24° 264° (W) 02:09:58 437.505
POLYITAN 1 20 Oct 02:08:59 02:12:18 22° 297° (WNW) 02:15:37 437.675
UKube-1 20 Oct 02:11:23 02:15:35 52° 259° (W) 02:19:48 .
VELOX 1 20 Oct 02:16:53 02:17:37 10° 274° (W) 02:18:21 145.980
M-CUBED/EXP-1 PRIME 20 Oct 02:21:13 02:24:25 33° 104° (ESE) 02:27:49 437.505
QB50P2 20 Oct 02:30:02 02:32:18 14° 302° (WNW) 02:34:31 145.880/145.840
Oscar 19 20 Oct 02:31:54 02:37:03 74° 103° (ESE) 02:42:09 437.125/150
NANOSAT C BR1 20 Oct 02:33:59 02:36:27 15° 301° (WNW) 02:38:55 145.865
MOZHAYETS 4 20 Oct 02:36:16 02:40:40 44° 69° (ENE) 02:45:05
DUCHIFAT 1 20 Oct 02:45:31 02:47:37 14° 302° (WNW) 02:49:43 145.980
CUBESAT XI-V 20 Oct 02:47:08 02:49:57 16° 58° (ENE) 02:52:45 437.345
BUGSAT 1 20 Oct 02:55:17 02:59:01 30° 294° (WNW) 03:02:42 437.445
Gurwin Techsat 1B 20 Oct 02:56:29 03:01:51 84° 105° (ESE) 03:07:11 435.225
ITUPSAT 1 20 Oct 02:57:12 03:01:57 65° 71° (ENE) 03:06:45 437.325
ITAMSAT 1 20 Oct 03:05:13 03:06:49 11° 85° (E) 03:08:25 435.822/435.867
BEESAT 20 Oct 03:13:15 03:18:02 89° 208° (SSW) 03:22:54 436.000
NO-84 20 Oct 03:23:16 03:26:45 24° 132° (SE) 03:30:11 435.350 FM
RS-15 20 Oct 03:23:57 03:36:04 57° 324° (NW) 03:48:01 29.354- 29.394
AO-7 20 Oct 03:25:46 03:32:48 30° 93° (E) 03:39:48 .
M-CUBED/EXP-1 PRIME 20 Oct 03:56:02 03:58:45 22° 300° (WNW) 04:01:34 437.505
KKS-1 20 Oct 04:09:43 04:13:34 30° 65° (ENE) 04:17:27 437.445
Oscar 19 20 Oct 04:12:15 04:15:50 19° 303° (WNW) 04:19:24 437.125/150
MOZHAYETS 4 20 Oct 04:14:15 04:18:01 24° 267° (W) 04:21:48
CUBESAT XI-V 20 Oct 04:22:07 04:26:45 76° 257° (WSW) 04:31:24 437.345
ITUPSAT 1 20 Oct 04:36:59 04:40:14 18° 270° (W) 04:43:29 437.325
Gurwin Techsat 1B 20 Oct 04:37:37 04:41:09 18° 304° (NW) 04:44:41 435.225
ITAMSAT 1 20 Oct 04:41:55 04:47:11 75° 104° (ESE) 04:52:25 435.822/435.867
STARS 20 Oct 04:44:45 04:48:30 29° 64° (ENE) 04:52:18 437.465
BEESAT 20 Oct 04:54:33 04:56:31 12° 273° (W) 04:58:31 436.000
NO-84 20 Oct 04:59:33 05:03:52 81° 331° (NNW) 05:08:01 435.350 FM
AO-7 20 Oct 05:18:00 05:26:18 74° 294° (WNW) 05:34:34 .
O/OREOS (USA 219) 20 Oct 05:24:08 05:27:56 24° 50° (NE) 05:31:43 437.305
RS-15 20 Oct 05:40:37 05:51:47 37° 357° (N) 06:02:36 29.354- 29.394
KKS-1 20 Oct 05:46:01 05:50:03 34° 263° (W) 05:54:08 437.445
DOVE 4 20 Oct 05:46:12 05:51:00 50° 99° (E) 05:56:00 437.250
LilacSat-2 20 Oct 05:50:16 05:51:54 12° 89° (E) 05:53:30 437.200
XW-2D 20 Oct 05:58:01 06:00:08 14° 90° (E) 06:02:14 145.860 - 145.880
NUDT-PHONESAT 20 Oct 06:02:12 06:03:00 11° 88° (E) 06:03:49 437.300
XW-2B 20 Oct 06:10:57 06:13:41 19° 92° (E) 06:16:24 145.730 - 145.750
STARS 20 Oct 06:20:42 06:24:44 35° 263° (W) 06:28:49 437.465
ITAMSAT 1 20 Oct 06:22:23 06:26:05 20° 303° (WNW) 06:29:46 435.822/435.867
STRAND 1 20 Oct 06:33:11 06:37:53 38° 65° (ENE) 06:42:37 437.568
XW-2C 20 Oct 06:33:39 06:37:05 33° 97° (E) 06:40:30 145.795 - 145.815
NO-84 20 Oct 06:37:46 06:41:41 36° 350° (N) 06:45:25 435.350 FM
CUTE-I 20 Oct 06:45:57 06:51:00 40° 97° (E) 06:56:01 437.470
SO-50 20 Oct 06:58:06 07:02:02 31° 117° (ESE) 07:05:59 436.795
O/OREOS (USA 219) 20 Oct 07:03:09 07:07:38 51° 250° (WSW) 07:12:05 437.305
FO-29 20 Oct 07:07:52 07:11:16 17° 52° (NE) 07:14:50 435.910
CUTE 1.7 + AOD 2 20 Oct 07:08:08 07:11:18 20° 92° (E) 07:14:27 437.475
AO-7 20 Oct 07:11:48 07:17:49 23° 317° (NW) 07:23:50 .
SEEDS 20 Oct 07:16:57 07:19:32 16° 90° (E) 07:22:08 437.485
KAITUO 1B 20 Oct 07:18:19 07:22:01 83° 102° (ESE) 07:25:42 145.475/437.950
XW-2F 20 Oct 07:19:00 07:22:44 77° 284° (WNW) 07:26:27 145.980 - 146.000
LilacSat-2 20 Oct 07:22:51 07:26:34 61° 287° (WNW) 07:30:17 437.200
DOVE 4 20 Oct 07:24:25 07:28:26 26° 296° (WNW) 07:32:36 437.250
XW-2D 20 Oct 07:30:57 07:34:37 50° 288° (WNW) 07:38:14 145.860 - 145.880
NUDT-PHONESAT 20 Oct 07:33:39 07:37:18 68° 287° (WNW) 07:40:56 437.300
AAUSAT CUBESAT 2 20 Oct 07:43:07 07:45:15 14° 89° (E) 07:47:23 437.432
XW-2A 20 Oct 07:44:30 07:46:30 15° 91° (E) 07:48:30 145.665 - 145.685
XW-2B 20 Oct 07:44:32 07:48:01 37° 290° (WNW) 07:51:29 145.730 - 145.750
HO-68 20 Oct 07:45:01 07:52:01 50° 100° (E) 07:58:57 435.675
RS-15 20 Oct 07:56:01 08:07:47 50° 30° (NNE) 08:18:58 29.354- 29.394
AO-73 20 Oct 07:59:44 08:01:33 12° 86° (E) 08:03:22 145.935
CUBEBUG 2 20 Oct 08:01:19 08:05:48 43° 97° (E) 08:10:08 437.445
XW-2C 20 Oct 08:08:10 08:11:06 22° 295° (WNW) 08:14:01 145.795 - 145.815
STRAND 1 20 Oct 08:12:28 08:17:06 34° 264° (W) 08:21:47 437.568
NO-84 20 Oct 08:15:57 08:19:47 37° 11° (NNE) 08:23:22 435.350 FM
ZACube-1 20 Oct 08:20:10 08:23:38 22° 92° (E) 08:27:00 437.345
PCSat 20 Oct 08:24:35 08:29:33 38° 114° (ESE) 08:34:32 145.827
CUTE-I 20 Oct 08:26:09 08:30:59 35° 296° (WNW) 08:35:48 437.470
SO-50 20 Oct 08:38:04 08:42:21 44° 317° (NW) 08:46:42 436.795
UWE-3 20 Oct 08:40:38 08:45:11 62° 101° (E) 08:49:33 435.000/436.395/437.385
CUTE 1.7 + AOD 2 20 Oct 08:43:21 08:47:20 44° 290° (WNW) 08:51:20 437.475
YUBILEINY 20 Oct 08:45:43 08:53:13 34° 83° (E) 09:00:44 435.215
UNISAT 6 20 Oct 08:45:46 08:49:40 27° 64° (ENE) 08:53:36 437.425
FO-29 20 Oct 08:50:15 08:55:30 89° 255° (WSW) 09:01:15 435.910
SEEDS 20 Oct 08:51:29 08:55:35 56° 288° (WNW) 08:59:39 437.485
KAITUO 1B 20 Oct 08:54:42 08:55:24 10° 301° (WNW) 08:56:07 145.475/437.950
Oscar 11 20 Oct 08:57:38 09:01:32 32° 96° (E) 09:05:22 .
TIGRISAT 20 Oct 09:00:23 09:04:33 33° 66° (ENE) 09:08:45 435.000
XW-2A 20 Oct 09:16:15 09:19:24 38° 289° (WNW) 09:22:31 145.665 - 145.685
DELFI C3 20 Oct 09:16:51 09:18:14 12° 88° (E) 09:19:37 145.870
AAUSAT CUBESAT 2 20 Oct 09:17:03 09:21:08 65° 287° (WNW) 09:25:13 437.432
HO-68 20 Oct 09:33:00 09:39:38 41° 300° (WNW) 09:46:14 435.675
AO-73 20 Oct 09:33:59 09:38:25 78° 284° (WNW) 09:42:40 145.935
CUBEBUG 2 20 Oct 09:38:19 09:42:11 26° 297° (WNW) 09:45:57 437.445
AIST 2D 20 Oct 09:47:53 09:48:15 10° 60° (ENE) 09:48:38 435.315
NO-84 20 Oct 09:53:32 09:57:31 82° 212° (SSW) 10:01:08 435.350 FM
ZACube-1 20 Oct 09:55:54 10:00:07 43° 291° (WNW) 10:04:12 437.345
PRISM 20 Oct 10:00:19 10:04:18 60° 72° (ENE) 10:08:19 437.425
EO-88 20 Oct 10:07:25 10:10:11 20° 93° (E) 10:12:56 145.990 - 145.960
PCSat 20 Oct 10:07:44 10:12:54 44° 314° (NW) 10:18:07 145.827
RS-15 20 Oct 10:09:14 10:21:12 75° 238° (WSW) 10:32:29 29.354- 29.394
Max Valier Satellite 20 Oct 10:15:40 10:19:03 34° 97° (E) 10:22:24 145.860
QB50P2 20 Oct 10:15:43 10:17:42 13° 57° (ENE) 10:19:40 145.880/145.840
UWE-3 20 Oct 10:18:02 10:21:09 18° 300° (WNW) 10:24:13 435.000/436.395/437.385
nSIGHT-1 20 Oct 10:19:02 10:21:24 20° 141° (SE) 10:23:48 .
NANOSAT C BR1 20 Oct 10:19:56 10:21:28 12° 56° (ENE) 10:23:01 145.865
SO-50 20 Oct 10:21:24 10:23:57 15° 340° (NNW) 10:26:32 436.795
UNISAT 6 20 Oct 10:21:44 10:26:10 43° 262° (W) 10:30:40 437.425
DUCHIFAT 1 20 Oct 10:30:26 10:32:24 13° 58° (ENE) 10:34:25 145.980
Oscar 11 20 Oct 10:33:51 10:37:36 30° 294° (WNW) 10:41:20 .
TIGRISAT 20 Oct 10:36:57 10:41:11 34° 264° (W) 10:45:29 435.000
FO-29 20 Oct 10:39:11 10:41:41 13° 277° (W) 10:44:16 435.910
YUBILEINY 20 Oct 10:40:54 10:49:30 63° 285° (WNW) 10:58:11 435.215
DELFI C3 20 Oct 10:49:31 10:53:28 72° 286° (WNW) 10:57:25 145.870
ISS 20 Oct 10:50:02 10:52:55 30° 145° (SE) 10:55:50 437.550
LO-87 20 Oct 10:59:34 11:00:58 12° 89° (E) 11:02:22 145.935 - 145.965
AO-73 20 Oct 11:12:29 11:13:50 11° 305° (NW) 11:15:10 145.935
AIST 2D 20 Oct 11:17:22 11:20:53 77° 257° (WSW) 11:24:24 435.315
HO-68 20 Oct 11:23:24 11:25:30 11° 323° (NW) 11:27:36 435.675
EO-79 20 Oct 11:23:52 11:27:59 49° 70° (ENE) 11:32:08 145.935-145.965
POLYITAN 1 20 Oct 11:28:24 11:32:34 54° 72° (ENE) 11:36:48 437.675
NO-84 20 Oct 11:32:09 11:34:16 15° 233° (SW) 11:36:17 435.350 FM
BEESAT 3 20 Oct 11:32:14 11:33:42 12° 110° (ESE) 11:35:11 437.485
PRISM 20 Oct 11:37:45 11:39:58 14° 270° (W) 11:42:12 437.425
EO-88 20 Oct 11:40:38 11:43:55 33° 291° (WNW) 11:47:11 145.990 - 145.960
QB50P2 20 Oct 11:48:33 11:52:50 87° 258° (WSW) 11:57:10 145.880/145.840
Max Valier Satellite 20 Oct 11:49:52 11:52:42 21° 295° (WNW) 11:55:30 145.860
NANOSAT C BR1 20 Oct 11:52:13 11:56:28 84° 76° (ENE) 12:00:46 145.865
nSIGHT-1 20 Oct 11:54:09 11:57:21 89° 191° (SSW) 12:00:34 .
PCSat 20 Oct 11:54:35 11:57:44 15° 338° (NNW) 12:00:54 145.827
DUCHIFAT 1 20 Oct 12:03:12 12:07:27 85° 260° (W) 12:11:45 145.980
SO-50 20 Oct 12:05:01 12:06:21 11° 5° (N) 12:07:42 436.795
BUGSAT 1 20 Oct 12:12:52 12:16:42 35° 68° (ENE) 12:20:35 437.445
Oscar 19 20 Oct 12:14:37 12:18:49 26° 61° (ENE) 12:23:00 437.125/150
RS-15 20 Oct 12:23:30 12:31:24 21° 263° (W) 12:39:05 29.354- 29.394
VELOX 1 20 Oct 12:23:32 12:25:46 14° 88° (E) 12:28:00 145.980
ISS 20 Oct 12:25:59 12:29:14 70° 344° (NNW) 12:32:31 437.550
ESTCUBE 1 20 Oct 12:30:46 12:35:16 79° 103° (ESE) 12:39:45 437.505/2401.250
LO-87 20 Oct 12:31:10 12:34:46 60° 287° (WNW) 12:38:20 145.935 - 145.965
AO-7 20 Oct 12:40:27 12:45:35 18° 38° (NE) 12:50:43 .
Gurwin Techsat 1B 20 Oct 12:42:34 12:47:13 32° 63° (ENE) 12:51:52 435.225
YUBILEINY 20 Oct 12:43:15 12:48:27 17° 311° (NW) 12:53:43 435.215
BEESAT 2 20 Oct 12:50:01 12:53:10 22° 115° (ESE) 12:56:21 435.950
EO-79 20 Oct 13:00:55 13:04:00 19° 269° (W) 13:07:07 145.935-145.965
POLYITAN 1 20 Oct 13:05:47 13:08:41 18° 269° (W) 13:11:37 437.675
BEESAT 3 20 Oct 13:06:35 13:10:36 89° 311° (NW) 13:14:40 437.485
M-CUBED/EXP-1 PRIME 20 Oct 13:10:43 13:14:06 89° 275° (W) 13:17:23 437.505
SPROUT 20 Oct 13:16:01 13:20:18 62° 101° (ESE) 13:24:33 437.525
50 SAT 20 Oct 13:20:23 13:21:43 12° 91° (E) 13:23:02 437.505
DX 1 20 Oct 13:30:26 13:33:17 17° 91° (E) 13:36:07 434.975-435.025
nSIGHT-1 20 Oct 13:30:42 13:33:50 47° 358° (N) 13:36:57 .
NANOSAT C BR1 20 Oct 13:31:27 13:32:47 11° 273° (W) 13:34:07 145.865
PCSat 20 Oct 13:42:06 13:43:36 11° 5° (N) 13:45:07 145.827
SO-50 20 Oct 13:45:00 13:48:31 21° 30° (NNE) 13:52:05 436.795
BUGSAT 1 20 Oct 13:48:36 13:52:08 26° 266° (W) 13:55:42 437.445
Oscar 19 20 Oct 13:52:48 13:57:51 53° 260° (W) 14:02:54 437.125/150
UKube-1 20 Oct 13:54:57 13:58:04 19° 92° (E) 14:01:09 .
VELOX 1 20 Oct 13:58:18 14:02:44 75° 287° (WNW) 14:07:10 145.980
AO-85 20 Oct 14:00:01 14:03:53 68° 125° (SE) 14:07:54 145.980
ISS 20 Oct 14:02:47 14:05:59 48° 4° (N) 14:09:11 437.550
ESTCUBE 1 20 Oct 14:08:57 14:11:29 15° 302° (WNW) 14:14:03 437.505/2401.250
Gurwin Techsat 1B 20 Oct 14:21:58 14:27:02 44° 262° (W) 14:32:07 435.225
ITAMSAT 1 20 Oct 14:25:32 14:29:53 28° 61° (ENE) 14:34:16 435.822/435.867
BEESAT 2 20 Oct 14:26:42 14:30:37 49° 314° (NW) 14:34:36 435.950
AO-7 20 Oct 14:28:40 14:36:42 58° 62° (ENE) 14:44:46 .
BEESAT 3 20 Oct 14:45:50 14:48:43 18° 329° (NNW) 14:51:36 437.485
50 SAT 20 Oct 14:51:06 14:54:19 48° 288° (WNW) 14:57:30 437.505
SPROUT 20 Oct 14:52:56 14:55:45 17° 300° (WNW) 14:58:33 437.525
ITUPSAT 1 20 Oct 14:55:41 14:57:36 12° 87° (E) 14:59:30 437.325
DX 1 20 Oct 15:05:31 15:09:50 59° 289° (WNW) 15:14:08 434.975-435.025
nSIGHT-1 20 Oct 15:07:08 15:10:20 76° 17° (NNE) 15:13:33 .
BEESAT 20 Oct 15:10:23 15:13:33 17° 90° (E) 15:16:41 436.000
SO-50 20 Oct 15:25:00 15:29:38 86° 50° (NE) 15:34:18 436.795
PCSat 20 Oct 15:25:12 15:29:14 20° 30° (NNE) 15:33:15 145.827
UKube-1 20 Oct 15:30:09 15:34:22 51° 290° (WNW) 15:38:33 .
VELOX 1 20 Oct 15:37:04 15:38:24 11° 305° (NW) 15:39:45 145.980
ISS 20 Oct 15:39:21 15:42:37 79° 201° (SSW) 15:45:54 437.550
AO-85 20 Oct 15:41:36 15:44:42 21° 327° (NNW) 15:47:55 145.980
MOZHAYETS 4 20 Oct 16:04:02 16:08:36 60° 101° (ESE) 16:13:05
ITAMSAT 1 20 Oct 16:04:05 16:09:06 49° 260° (W) 16:14:11 435.822/435.867
BEESAT 2 20 Oct 16:07:12 16:09:18 14° 336° (NNW) 16:11:24 435.950
CUBESAT XI-V 20 Oct 16:15:17 16:18:42 20° 91° (E) 16:22:06 437.345
AO-7 20 Oct 16:22:09 16:29:47 40° 262° (W) 16:37:28 .
ITUPSAT 1 20 Oct 16:31:18 16:36:08 88° 104° (ESE) 16:40:56 437.325
CUTE-I 20 Oct 16:34:15 16:37:36 17° 55° (NE) 16:40:57 437.470
HO-68 20 Oct 16:34:23 16:38:06 15° 42° (NE) 16:41:50 435.675
LilacSat-2 20 Oct 16:36:16 16:37:54 12° 60° (ENE) 16:39:31 437.200
XW-2D 20 Oct 16:43:18 16:45:17 14° 61° (ENE) 16:47:17 145.860 - 145.880
nSIGHT-1 20 Oct 16:43:41 16:46:24 25° 217° (SW) 16:49:07 .
NUDT-PHONESAT 20 Oct 16:46:01 16:46:14 10° 58° (ENE) 16:46:28 437.300
BEESAT 20 Oct 16:47:01 16:51:47 66° 288° (WNW) 16:56:31 436.000
DOVE 4 20 Oct 16:55:42 16:59:52 71° 74° (ENE) 17:04:17 437.250
XW-2B 20 Oct 16:56:02 16:58:38 18° 63° (ENE) 17:01:13 145.730 - 145.750
SO-50 20 Oct 17:06:51 17:09:29 15° 249° (WSW) 17:12:08 436.795
PCSat 20 Oct 17:08:08 17:13:35 73° 53° (NE) 17:19:00 145.827
ISS 20 Oct 17:16:28 17:18:42 17° 221° (SW) 17:20:55 437.550
XW-2C 20 Oct 17:18:24 17:21:43 29° 68° (ENE) 17:25:03 145.795 - 145.815
KKS-1 20 Oct 17:32:30 17:36:35 33° 96° (E) 17:40:38 437.445
MOZHAYETS 4 20 Oct 17:42:04 17:45:19 19° 300° (WNW) 17:48:33
CUBESAT XI-V 20 Oct 17:51:55 17:56:23 52° 289° (WNW) 18:00:50 437.345
KAITUO 1B 20 Oct 18:01:23 18:05:04 65° 74° (ENE) 18:08:47 145.475/437.950
XW-2F 20 Oct 18:02:54 18:06:40 87° 78° (ENE) 18:10:28 145.980 - 146.000
CUTE 1.7 + AOD 2 20 Oct 18:04:19 18:07:44 24° 65° (ENE) 18:11:10 437.475
STARS 20 Oct 18:05:43 18:09:40 30° 96° (E) 18:13:35 437.465
BEESAT 3 20 Oct 18:06:48 18:07:18 10° 17° (NNE) 18:07:48 437.485
UWE-3 20 Oct 18:07:32 18:09:30 13° 56° (NE) 18:11:29 435.000/436.395/437.385
LilacSat-2 20 Oct 18:07:49 18:11:38 73° 258° (WSW) 18:15:28 437.200
ITUPSAT 1 20 Oct 18:10:35 18:13:17 15° 304° (NW) 18:16:00 437.325
CUTE-I 20 Oct 18:11:36 18:16:56 90° 271° (W) 18:22:19 437.470
SEEDS 20 Oct 18:12:12 18:15:09 19° 63° (ENE) 18:18:08 437.485
XW-2D 20 Oct 18:15:14 18:19:01 62° 259° (W) 18:22:47 145.860 - 145.880
NUDT-PHONESAT 20 Oct 18:15:45 18:19:29 88° 263° (W) 18:23:12 437.300
HO-68 20 Oct 18:17:24 18:24:20 55° 64° (ENE) 18:31:19 435.675
XW-2A 20 Oct 18:20:25 18:21:26 11° 61° (ENE) 18:22:26 145.665 - 145.685
BEESAT 20 Oct 18:27:15 18:28:39 11° 308° (NW) 18:30:04 436.000
XW-2B 20 Oct 18:28:51 18:32:30 45° 261° (W) 18:36:10 145.730 - 145.750
DOVE 4 20 Oct 18:36:11 18:38:11 13° 273° (W) 18:40:15 437.250
AAUSAT CUBESAT 2 20 Oct 18:36:53 18:39:25 16° 61° (ENE) 18:41:57 437.432
YUBILEINY 20 Oct 18:49:54 18:56:26 22° 55° (NE) 19:02:57 435.215
PCSat 20 Oct 18:52:27 18:56:26 21° 253° (WSW) 19:00:23 145.827
XW-2C 20 Oct 18:52:44 18:55:54 25° 266° (W) 18:59:05 145.795 - 145.815
AO-73 20 Oct 18:58:07 19:01:11 18° 60° (ENE) 19:04:15 145.935
CUBEBUG 2 20 Oct 19:02:21 19:06:56 56° 71° (ENE) 19:11:37 437.445
AO-85 20 Oct 19:07:27 19:09:04 12° 18° (NNE) 19:10:45 145.980
KKS-1 20 Oct 19:09:08 19:13:06 31° 295° (WNW) 19:17:03 437.445
ZACube-1 20 Oct 19:19:02 19:22:59 29° 66° (ENE) 19:26:57 437.345
BEESAT 2 20 Oct 19:26:14 19:28:22 14° 24° (NNE) 19:30:28 435.950
KAITUO 1B 20 Oct 19:38:14 19:39:29 11° 272° (W) 19:40:43 145.475/437.950
CUTE 1.7 + AOD 2 20 Oct 19:39:26 19:43:24 38° 263° (W) 19:47:22 437.475
UWE-3 20 Oct 19:40:31 19:45:10 78° 74° (ENE) 19:49:52 435.000/436.395/437.385
STARS 20 Oct 19:42:00 19:46:00 33° 294° (WNW) 19:49:58 437.465
BEESAT 3 20 Oct 19:42:34 19:46:07 29° 39° (NE) 19:49:36 437.485
O/OREOS (USA 219) 20 Oct 19:43:24 19:44:45 11° 96° (E) 19:46:06 437.305
SEEDS 20 Oct 19:46:27 19:50:31 50° 261° (W) 19:54:36 437.485
XW-2A 20 Oct 19:50:15 19:53:39 65° 258° (WSW) 19:57:03 145.665 - 145.685
CUTE-I 20 Oct 19:54:57 19:57:45 14° 273° (W) 20:00:33 437.470
Oscar 11 20 Oct 19:55:47 19:59:49 39° 69° (ENE) 20:03:53 .
FO-29 20 Oct 19:55:50 19:58:45 13° 83° (E) 20:01:45 435.910
HO-68 20 Oct 20:05:52 20:12:21 36° 265° (W) 20:18:54 435.675
DELFI C3 20 Oct 20:06:03 20:07:41 12° 59° (ENE) 20:09:19 145.870
AAUSAT CUBESAT 2 20 Oct 20:10:22 20:14:25 61° 259° (W) 20:18:30 437.432
STRAND 1 20 Oct 20:18:10 20:23:19 62° 102° (ESE) 20:28:25 437.568
AO-73 20 Oct 20:32:24 20:36:57 66° 259° (W) 20:41:30 145.935
CUBEBUG 2 20 Oct 20:40:27 20:43:54 20° 270° (W) 20:47:24 437.445
YUBILEINY 20 Oct 20:45:56 20:54:48 82° 80° (E) 21:03:39 435.215
AO-85 20 Oct 20:46:45 20:50:45 33° 40° (NE) 20:55:00 145.980
EO-88 20 Oct 20:49:00 20:51:26 17° 63° (ENE) 20:53:53 145.990 - 145.960
ZACube-1 20 Oct 20:54:55 20:59:09 37° 264° (W) 21:03:25 437.345
Max Valier Satellite 20 Oct 20:57:58 21:01:11 28° 67° (ENE) 21:04:24 145.860
BEESAT 2 20 Oct 21:03:03 21:07:01 50° 46° (NE) 21:10:56 435.950
UWE-3 20 Oct 21:19:41 21:22:10 14° 273° (W) 21:24:42 435.000/436.395/437.385
BEESAT 3 20 Oct 21:20:00 21:23:47 41° 239° (WSW) 21:27:27 437.485
